sat.trackr.live / text

‹ back to catalog

VIREON-2

NORAD 68421 · 2026-067F

PAYLOAD ACTIVE UNKNOWN

§ Identity

Operator
Country
UK
Launch date
2026-03-30
Launch site
AFWTR
Launch vehicle
Mass (kg)
RCS (m²)

External: N2YO · Heavens-Above · Gunter

§ Orbital elements

Epoch: 2026-09-20T03:55:53.007744Z

Period
94.77 min
Inclination
97.4625°
Eccentricity
0.0000862
Mean motion
15.19403980 rev/d
Perigee alt
507.0 km
Apogee alt
508.2 km
Semi-major
6,885.8 km
B*
1.1730e-4
RAAN
220.4383°
Arg perigee
78.5839°
Mean anomaly
281.5493°
Rev number
2,636

§ Raw data

VIREON-21 68421U 26067F   26263.16380796  .00002415  00000+0  11730-3 0  99972 68421  97.4625 220.4383 0000862  78.5839 281.5493 15.19403980 26363

JSON: /api/v1/satellites/68421 · /tle

For live sub-satellite position, see the globe view (requires WebGL).

§ Visibility from observer

Set your observer location to see the next 7 days of passes ≥ 10°. The values pass through the URL so the page stays shareable.

No JS? Fill the form by hand. The geolocation button needs JavaScript.